Norman, OK

6:53 AM CST on January 19, 2017 (GMT -0600)
Univ. Of Oklahoma Westheimer

Weather History for KOUN - September, 2014

Change the Weather History Date:

Saturday, September 13, 2014

  Actual Average Record
Temperature  
Mean Temperature 54 °F -  
Max Temperature 62 °F 87 °F 104 °F (2011)
Min Temperature 46 °F 61 °F 46 °F (2014)
Degree Days  
Heating Degree Days 11    
Growing Degree Days 4 (Base 50)    
Moisture  
Dew Point 48 °F    
Average Humidity 80    
Maximum Humidity 100    
Minimum Humidity 63    
Precipitation  
Precipitation 0.00 in - - ()
Sea Level Pressure  
Sea Level Pressure 30.31 in    
Wind  
Wind Speed 10 mph (ENE)    
Max Wind Speed 16 mph    
Max Gust Speed 25 mph    
Visibility 10 miles    
Events      
Averages and records for this station are not official NWS values.
T = Trace of Precipitation, MM = Missing Value Source: NWS Daily Summary

Daily Weather History Graph

Daily Weather History Graph

Search for Another Location

Airport or City:

Trip Planner

Search our weather history database for the weather conditions in past years. The results will help you decide how hot, cold, wet, or windy it might be!

Date:

Astronomy

Sep. 13, 2014 Rise Set
Actual Time 7:11 AM CDT 7:39 PM CDT
Civil Twilight 6:45 AM CDT 8:05 PM CDT
Nautical Twilight 6:15 AM CDT 8:35 PM CDT
Astronomical Twilight 5:45 AM CDT 9:05 PM CDT
Moon 10:57 PM CDT (9/13) 12:08 PM CDT (9/13)
Length of Visible Light 13h 19m
Length of Day
12h 28m
Waning Gibbous, 74% of the Moon is Illuminated
Sep 13
Waning Gibbous
Sep 15
Last Quarter
Sep 24
New
Oct 1
First Quarter
Oct 8
Full

Hourly Weather History & Observations

Time (CDT) Temp. Windchill Dew Point Humidity Pressure Visibility Wind Dir Wind Speed Gust Speed Precip Events Conditions
12:15 AM 51.8 °F - 48.2 °F 88% 30.36 in 10.0 mi NNE 16.1 mph - N/A   Mostly Cloudy
12:35 AM 51.8 °F - 48.2 °F 88% 30.35 in 10.0 mi North 16.1 mph 25.3 mph N/A   Mostly Cloudy
12:55 AM 51.8 °F - 48.2 °F 88% 30.35 in 10.0 mi North 10.4 mph - N/A   Overcast
1:15 AM 51.8 °F - 48.2 °F 88% 30.35 in 10.0 mi North 12.7 mph 19.6 mph N/A   Mostly Cloudy
1:35 AM 50.0 °F - 46.4 °F 87% 30.35 in 10.0 mi NNE 13.8 mph 19.6 mph N/A   Mostly Cloudy
1:55 AM 51.8 °F - 46.4 °F 82% 30.35 in 10.0 mi North 15.0 mph 20.7 mph N/A   Overcast
2:15 AM 50.0 °F - 46.4 °F 87% 30.34 in 10.0 mi North 15.0 mph 19.6 mph N/A   Overcast
2:35 AM 50.0 °F - 46.4 °F 87% 30.34 in 10.0 mi NNE 11.5 mph - N/A   Overcast
2:55 AM 50.0 °F - 46.4 °F 87% 30.34 in 10.0 mi North 13.8 mph 17.3 mph N/A   Overcast
3:15 AM 50.0 °F - 46.4 °F 87% 30.34 in 10.0 mi North 16.1 mph - N/A   Overcast
3:35 AM 50.0 °F - 46.4 °F 87% 30.34 in 10.0 mi North 15.0 mph 21.9 mph N/A   Overcast
3:55 AM 50.0 °F - 46.4 °F 87% 30.34 in 10.0 mi North 12.7 mph 16.1 mph N/A   Overcast
4:15 AM 48.2 °F - 46.4 °F 93% 30.34 in 10.0 mi North 10.4 mph - N/A   Overcast
4:35 AM 46.4 °F 40.7 °F 44.6 °F 93% 30.34 in 10.0 mi North 12.7 mph - N/A   Mostly Cloudy
4:55 AM 46.4 °F 42.4 °F 46.4 °F 100% 30.34 in 10.0 mi North 8.1 mph - N/A   Clear
5:15 AM 46.4 °F 41.9 °F 46.4 °F 100% 30.34 in 10.0 mi NNE 9.2 mph - N/A   Clear
5:35 AM 46.4 °F 41.9 °F 46.4 °F 100% 30.35 in 10.0 mi NNE 9.2 mph 16.1 mph N/A   Mostly Cloudy
5:55 AM 46.4 °F 41.9 °F 46.4 °F 100% 30.35 in 10.0 mi North 9.2 mph - N/A   Overcast
6:15 AM 46.4 °F 40.7 °F 46.4 °F 100% 30.35 in 10.0 mi NNE 12.7 mph - N/A   Overcast
6:35 AM 46.4 °F 41.9 °F 46.4 °F 100% 30.35 in 10.0 mi North 9.2 mph - N/A   Overcast
6:55 AM 48.2 °F - 46.4 °F 93% 30.36 in 10.0 mi North 11.5 mph - N/A   Overcast
7:15 AM 48.2 °F - 46.4 °F 93% 30.36 in 10.0 mi NNE 11.5 mph 17.3 mph N/A   Overcast
7:35 AM 48.2 °F - 44.6 °F 87% 30.37 in 10.0 mi NNE 10.4 mph - N/A   Overcast
7:55 AM 48.2 °F - 46.4 °F 93% 30.36 in 10.0 mi NNE 12.7 mph - N/A   Overcast
8:15 AM 48.2 °F - 44.6 °F 87% 30.37 in 10.0 mi NE 15.0 mph - N/A   Overcast
8:35 AM 48.2 °F - 44.6 °F 87% 30.37 in 10.0 mi NNE 6.9 mph - N/A   Overcast
8:55 AM 50.0 °F - 44.6 °F 82% 30.37 in 10.0 mi NE 11.5 mph 16.1 mph N/A   Overcast
9:15 AM 50.0 °F - 44.6 °F 82% 30.37 in 10.0 mi NNE 10.4 mph - N/A   Overcast
9:35 AM 50.0 °F - 46.4 °F 87% 30.37 in 10.0 mi NNE 11.5 mph - N/A   Overcast
9:55 AM 50.0 °F - 44.6 °F 82% 30.38 in 10.0 mi NE 11.5 mph - N/A   Overcast
10:15 AM 50.0 °F - 46.4 °F 87% 30.38 in 10.0 mi ENE 10.4 mph - N/A   Overcast
10:35 AM 50.0 °F - 44.6 °F 82% 30.37 in 10.0 mi NE 9.2 mph - N/A   Overcast
10:55 AM 51.8 °F - 46.4 °F 82% 30.38 in 10.0 mi NE 10.4 mph - N/A   Overcast
11:15 AM 51.8 °F - 46.4 °F 82% 30.37 in 10.0 mi NNE 8.1 mph - N/A   Overcast
11:35 AM 51.8 °F - 46.4 °F 82% 30.37 in 10.0 mi NNE 9.2 mph - N/A   Overcast
11:55 AM 53.6 °F - 46.4 °F 77% 30.36 in 10.0 mi NNE 8.1 mph - N/A   Overcast
12:15 PM 53.6 °F - 46.4 °F 77% 30.35 in 10.0 mi NE 6.9 mph - N/A   Mostly Cloudy
12:35 PM 55.4 °F - 46.4 °F 72% 30.34 in 10.0 mi ENE 6.9 mph - N/A   Mostly Cloudy
12:55 PM 55.4 °F - 46.4 °F 72% 30.34 in 10.0 mi ENE 8.1 mph - N/A   Scattered Clouds
1:15 PM 57.2 °F - 46.4 °F 67% 30.33 in 10.0 mi East 3.5 mph - N/A   Scattered Clouds
1:35 PM 57.2 °F - 46.4 °F 67% 30.33 in 10.0 mi ESE 3.5 mph - N/A   Scattered Clouds
1:55 PM 59.0 °F - 48.2 °F 67% 30.32 in 10.0 mi ESE 6.9 mph - N/A   Mostly Cloudy
2:15 PM 59.0 °F - 48.2 °F 67% 30.31 in 10.0 mi Calm Calm - N/A   Scattered Clouds
2:35 PM 60.8 °F - 48.2 °F 63% 30.30 in 10.0 mi SE 5.8 mph - N/A   Clear
2:55 PM 60.8 °F - 50.0 °F 68% 30.29 in 10.0 mi SSE 3.5 mph - N/A   Clear
3:15 PM 60.8 °F - 50.0 °F 68% 30.28 in 10.0 mi East 3.5 mph - N/A   Clear
3:35 PM 60.8 °F - 50.0 °F 68% 30.27 in 10.0 mi Calm Calm - N/A   Clear
3:55 PM 62.6 °F - 50.0 °F 63% 30.26 in 10.0 mi NE 3.5 mph - N/A   Clear
4:15 PM 62.6 °F - 50.0 °F 63% 30.25 in 10.0 mi Calm Calm - N/A   Clear
4:35 PM 62.6 °F - 50.0 °F 63% 30.25 in 10.0 mi Calm Calm - N/A   Clear
4:55 PM 62.6 °F - 50.0 °F 63% 30.24 in 10.0 mi ENE 4.6 mph - N/A   Clear
5:15 PM 62.6 °F - 50.0 °F 63% 30.24 in 10.0 mi ENE 4.6 mph - N/A   Clear
5:35 PM 62.6 °F - 50.0 °F 63% 30.24 in 10.0 mi Calm Calm - N/A   Clear
5:55 PM 62.6 °F - 51.8 °F 68% 30.23 in 10.0 mi ESE 4.6 mph - N/A   Clear
6:15 PM 62.6 °F - 51.8 °F 68% 30.23 in 10.0 mi ESE 3.5 mph - N/A   Clear
6:35 PM 62.6 °F - 51.8 °F 68% 30.23 in 10.0 mi ESE 6.9 mph - N/A   Clear
6:55 PM 62.6 °F - 51.8 °F 68% 30.23 in 10.0 mi East 4.6 mph - N/A   Clear
7:15 PM 60.8 °F - 51.8 °F 72% 30.23 in 10.0 mi East 8.1 mph - N/A   Clear
7:35 PM 60.8 °F - 51.8 °F 72% 30.23 in 10.0 mi East 5.8 mph - N/A   Clear
7:55 PM 60.8 °F - 51.8 °F 72% 30.23 in 10.0 mi ESE 5.8 mph - N/A   Clear
8:15 PM 59.0 °F - 51.8 °F 77% 30.23 in 10.0 mi ESE 5.8 mph - N/A   Clear
8:35 PM 59.0 °F - 51.8 °F 77% 30.24 in 10.0 mi ESE 6.9 mph - N/A   Clear
8:55 PM 59.0 °F - 51.8 °F 77% 30.24 in 10.0 mi ESE 6.9 mph - N/A   Clear
9:15 PM 59.0 °F - 51.8 °F 77% 30.24 in 10.0 mi East 5.8 mph - N/A   Clear
9:35 PM 59.0 °F - 51.8 °F 77% 30.24 in 10.0 mi ESE 6.9 mph - N/A   Clear
9:55 PM 59.0 °F - 51.8 °F 77% 30.24 in 10.0 mi ESE 6.9 mph - N/A   Clear
10:15 PM 57.2 °F - 51.8 °F 82% 30.25 in 10.0 mi ESE 6.9 mph - N/A   Clear
10:35 PM 57.2 °F - 51.8 °F 82% 30.24 in 10.0 mi ESE 5.8 mph - N/A   Clear
10:55 PM 57.2 °F - 51.8 °F 82% 30.24 in 10.0 mi ESE 5.8 mph - N/A   Clear
11:15 PM 57.2 °F - 51.8 °F 82% 30.25 in 10.0 mi ESE 6.9 mph - N/A   Clear
11:35 PM 57.2 °F - 51.8 °F 82% 30.25 in 10.0 mi ESE 4.6 mph - N/A   Clear
11:55 PM 55.4 °F - 51.8 °F 88% 30.25 in 10.0 mi SE 5.8 mph - N/A   Clear